| time (UTC) | temp C | wind direction | speed KPH | gust KPH | rain 1hr cm | rain 24hr cm | rain mn cm | humidity % | barometer mb |
| 20260507203047 | 15 | 352 | 3.2 | 12.9 | 0.00 | 0.41 | 0.15 | 38 | 1017.7 |
| 20260507201541 | 15 | 297 | 8.0 | 14.5 | 0.00 | 0.41 | 0.15 | 42 | 1018.0 |
| 20260507200046 | 15 | 30 | 9.7 | 16.1 | 0.00 | 0.41 | 0.15 | 40 | 1018.0 |
| 20260507194536 | 14 | 123 | 4.8 | 14.5 | 0.00 | 0.41 | 0.15 | 39 | 1018.1 |
| 20260507193050 | 13 | 7 | 6.4 | 17.7 | 0.00 | 0.41 | 0.15 | 41 | 1018.2 |
| 20260507191540 | 13 | 309 | 4.8 | 17.7 | 0.00 | 0.41 | 0.15 | 41 | 1018.5 |
| 20260507190041 | 13 | 272 | 4.8 | 19.3 | 0.00 | 0.41 | 0.15 | 37 | 1018.6 |
| 20260507184541 | 13 | 335 | 4.8 | 14.5 | 0.00 | 0.41 | 0.15 | 39 | 1018.8 |
| 20260507183040 | 14 | 14 | 1.6 | 6.4 | 0.00 | 0.41 | 0.15 | 36 | 1018.7 |
| 20260507181537 | 13 | 351 | 4.8 | 16.1 | 0.00 | 0.41 | 0.15 | 37 | 1018.7 |
| 20260507180046 | 12 | 309 | 1.6 | 14.5 | 0.03 | 0.41 | 0.15 | 38 | 1018.8 |
| 20260507174548 | 12 | 20 | 4.8 | 11.3 | 0.05 | 0.41 | 0.15 | 37 | 1018.9 |
| 20260507173045 | 13 | 323 | 4.8 | 9.7 | 0.08 | 0.41 | 0.15 | 36 | 1019.2 |
| 20260507171553 | 13 | 59 | 1.6 | 8.0 | 0.10 | 0.41 | 0.15 | 40 | 1019.4 |
| 20260507170037 | 13 | 308 | 0.0 | 4.8 | 0.10 | 0.38 | 0.13 | 44 | 1019.5 |
| 20260507164550 | 13 | 0 | 0.0 | 6.4 | 0.08 | 0.36 | 0.10 | 42 | 1019.5 |
| 20260507163041 | 12 | 7 | 0.0 | 8.0 | 0.05 | 0.33 | 0.08 | 49 | 1019.6 |
| 20260507161545 | 11 | 334 | 3.2 | 8.0 | 0.03 | 0.30 | 0.05 | 47 | 1019.8 |
| 20260507160042 | 11 | 15 | 1.6 | 9.7 | 0.00 | 0.28 | 0.03 | 49 | 1019.6 |
| 20260507154540 | 10 | 298 | 0.0 | 6.4 | 0.00 | 0.28 | 0.03 | 55 | 1019.5 |
| 20260507153039 | 9 | 61 | 0.0 | 3.2 | 0.00 | 0.28 | 0.03 | 56 | 1019.8 |
| 20260507151544 | 8 | 0 | 1.6 | 4.8 | 0.03 | 0.28 | 0.03 | 62 | 1019.7 |
| 20260507150041 | 7 | 0 | 0.0 | 9.7 | 0.03 | 0.28 | 0.03 | 73 | 1019.7 |
| 20260507144540 | 7 | 292 | 0.0 | 4.8 | 0.03 | 0.28 | 0.03 | 73 | 1019.7 |
| 20260507143045 | 6 | 7 | 0.0 | 1.6 | 0.00 | 0.25 | 0.00 | 74 | 1019.6 |
| 20260507141542 | 6 | 151 | 1.6 | 4.8 | 0.00 | 0.25 | 0.00 | 70 | 1019.7 |
| 20260507140037 | 5 | 181 | 1.6 | 8.0 | 0.00 | 0.25 | 0.00 | 69 | 1019.5 |
| 20260507134552 | 5 | 213 | 1.6 | 4.8 | 0.00 | 0.25 | 0.00 | 64 | 1019.3 |
| 20260507133042 | 4 | 216 | 1.6 | 3.2 | 0.00 | 0.25 | 0.00 | 60 | 1019.2 |
| 20260507131541 | 2 | 205 | 1.6 | 4.8 | 0.00 | 0.25 | 0.00 | 63 | 1018.9 |
| 20260507130039 | 1 | 155 | 1.6 | 3.2 | 0.00 | 0.25 | 0.00 | 65 | 1018.9 |
| 20260507124540 | 0 | 207 | 0.0 | 3.2 | 0.00 | 0.25 | 0.00 | 69 | 1018.8 |
| 20260507123038 | 0 | 0 | 0.0 | 3.2 | 0.00 | 0.25 | 0.00 | 69 | 1018.5 |
| 20260507121536 | -1 | 213 | 0.0 | 3.2 | 0.00 | 0.25 | 0.00 | 69 | 1018.5 |
| 20260507120042 | -1 | 0 | 0.0 | 1.6 | 0.00 | 0.25 | 0.00 | 69 | 1018.5 |
| 20260507114541 | -1 | 200 | 0.0 | 3.2 | 0.00 | 0.25 | 0.00 | 69 | 1018.5 |
| 20260507113040 | -1 | 0 | 0.0 | 0.0 | 0.00 | 0.25 | 0.00 | 68 | 1018.5 |
| 20260507111540 | -1 | 0 | 0.0 | 0.0 | 0.00 | 0.25 | 0.00 | 68 | 1018.6 |
| 20260507110048 | -1 | 0 | 0.0 | 0.0 | 0.00 | 0.25 | 0.00 | 69 | 1018.5 |
| 20260507104536 | -1 | 0 | 0.0 | 3.2 | 0.00 | 0.25 | 0.00 | 70 | 1018.4 |
| 20260507103041 | -2 | 0 | 0.0 | 0.0 | 0.00 | 0.25 | 0.00 | 72 | 1018.5 |
| 20260507101543 | -1 | 0 | 0.0 | 4.8 | 0.00 | 0.25 | 0.00 | 72 | 1018.7 |
| 20260507100040 | -1 | 0 | 0.0 | 6.4 | 0.00 | 0.25 | 0.00 | 73 | 1018.8 |
| 20260507094540 | -1 | 223 | 0.0 | 4.8 | 0.00 | 0.25 | 0.00 | 73 | 1018.7 |
| 20260507093036 | -1 | 0 | 0.0 | 3.2 | 0.00 | 0.25 | 0.00 | 72 | 1018.7 |
| 20260507091539 | -1 | 221 | 0.0 | 4.8 | 0.00 | 0.25 | 0.00 | 75 | 1018.8 |
| 20260507090046 | -1 | 207 | 1.6 | 4.8 | 0.00 | 0.25 | 0.00 | 74 | 1019.1 |
| 20260507084542 | -2 | 162 | 1.6 | 3.2 | 0.00 | 0.25 | 0.00 | 79 | 1019.2 |
| 20260507083040 | -2 | 205 | 1.6 | 3.2 | 0.00 | 0.25 | 0.00 | 80 | 1019.1 |
| 20260507081540 | -2 | 0 | 0.0 | 6.4 | 0.00 | 0.25 | 0.00 | 80 | 1019.1 |
| 20260507080037 | -2 | 200 | 1.6 | 3.2 | 0.00 | 0.25 | 0.00 | 83 | 1019.0 |
| 20260507074543 | -2 | 201 | 0.0 | 4.8 | 0.00 | 0.25 | 0.00 | 85 | 1019.2 |
| 20260507073037 | -2 | 226 | 1.6 | 3.2 | 0.00 | 0.25 | 0.00 | 87 | 1019.4 |
| 20260507071544 | -3 | 164 | 0.0 | 4.8 | 0.00 | 0.25 | 0.00 | 88 | 1019.5 |
| 20260507070057 | -3 | 203 | 0.0 | 3.2 | 0.00 | 0.25 | 0.00 | 90 | 1019.5 |
| 20260507064541 | -3 | 230 | 0.0 | 3.2 | 0.00 | 0.25 | 0.00 | 91 | 1019.3 |
| 20260507063040 | -3 | 0 | 0.0 | 0.0 | 0.00 | 0.25 | 0.00 | 92 | 1019.5 |
| 20260507061541 | -3 | 0 | 0.0 | 0.0 | 0.00 | 0.25 | 0.00 | 93 | 1019.4 |
| 20260507060051 | -3 | 0 | 0.0 | 0.0 | 0.00 | 0.25 | 0.00 | 93 | 1019.2 |
| 20260507054538 | -3 | 0 | 0.0 | 0.0 | 0.00 | 0.25 | 0.25 | 94 | 1019.1 |
| 20260507053050 | -3 | 0 | 0.0 | 0.0 | 0.00 | 0.25 | 0.25 | 94 | 1019.1 |
| 20260507051542 | -3 | 0 | 0.0 | 4.8 | 0.00 | 0.25 | 0.25 | 94 | 1019.1 |
| 20260507050043 | -3 | 193 | 1.6 | 4.8 | 0.00 | 0.25 | 0.25 | 93 | 1018.9 |
| 20260507044541 | -3 | 165 | 1.6 | 4.8 | 0.00 | 0.25 | 0.25 | 93 | 1018.9 |
| 20260507043042 | -2 | 0 | 3.2 | 11.3 | 0.00 | 0.25 | 0.25 | 93 | 1018.9 |
| 20260507041540 | -2 | 191 | 4.8 | 12.9 | 0.00 | 0.25 | 0.25 | 93 | 1018.8 |
| 20260507040041 | -2 | 174 | 6.4 | 11.3 | 0.00 | 0.25 | 0.25 | 92 | 1019.0 |
| 20260507034552 | -2 | 211 | 4.8 | 9.7 | 0.00 | 0.25 | 0.25 | 92 | 1018.9 |
| 20260507033042 | -2 | 203 | 4.8 | 14.5 | 0.00 | 0.25 | 0.25 | 92 | 1018.9 |
| 20260507031547 | -2 | 176 | 4.8 | 12.9 | 0.00 | 0.25 | 0.25 | 91 | 1018.8 |
| 20260507030041 | -2 | 203 | 4.8 | 11.3 | 0.00 | 0.25 | 0.25 | 91 | 1018.5 |
| 20260507024552 | -2 | 182 | 4.8 | 11.3 | 0.00 | 0.25 | 0.25 | 91 | 1018.5 |
| 20260507023041 | -2 | 212 | 4.8 | 14.5 | 0.00 | 0.25 | 0.25 | 90 | 1018.4 |
| 20260507021547 | -1 | 219 | 1.6 | 9.7 | 0.00 | 0.25 | 0.25 | 90 | 1018.4 |
| 20260507020052 | -1 | 214 | 6.4 | 14.5 | 0.00 | 0.25 | 0.25 | 89 | 1018.3 |
| 20260507014544 | -1 | 208 | 4.8 | 14.5 | 0.00 | 0.25 | 0.25 | 88 | 1018.3 |
| 20260507013041 | -1 | 215 | 4.8 | 14.5 | 0.00 | 0.25 | 0.25 | 88 | 1018.2 |
| 20260507011545 | 0 | 235 | 4.8 | 14.5 | 0.00 | 0.25 | 0.25 | 87 | 1018.0 |
| 20260507010050 | 0 | 159 | 4.8 | 11.3 | 0.00 | 0.25 | 0.25 | 86 | 1018.1 |
| 20260507004536 | 0 | 193 | 4.8 | 11.3 | 0.03 | 0.25 | 0.25 | 86 | 1018.0 |
| 20260507003041 | 0 | 202 | 4.8 | 14.5 | 0.03 | 0.25 | 0.25 | 85 | 1017.9 |
| 20260507001546 | 0 | 204 | 3.2 | 12.9 | 0.03 | 0.25 | 0.25 | 84 | 1017.9 |
| 20260507000040 | 0 | 238 | 4.8 | 12.9 | 0.05 | 0.25 | 0.25 | 85 | 1018.0 |
| 20260506234541 | 0 | 172 | 4.8 | 12.9 | 0.05 | 0.25 | 0.23 | 86 | 1017.9 |
| 20260506233038 | 0 | 187 | 4.8 | 9.7 | 0.05 | 0.25 | 0.23 | 87 | 1018.0 |
| 20260506231539 | 0 | 198 | 0.0 | 6.4 | 0.08 | 0.25 | 0.23 | 89 | 1018.1 |
| 20260506230045 | 0 | 160 | 1.6 | 8.0 | 0.08 | 0.23 | 0.20 | 88 | 1017.8 |
| 20260506224541 | 0 | 0 | 1.6 | 6.4 | 0.10 | 0.25 | 0.18 | 90 | 1017.9 |
| 20260506223044 | -1 | 0 | 0.0 | 4.8 | 0.15 | 0.25 | 0.18 | 91 | 1018.0 |
| 20260506221545 | 0 | 18 | 3.2 | 6.4 | 0.15 | 0.23 | 0.15 | 89 | 1018.0 |
| 20260506220047 | 0 | 44 | 1.6 | 12.9 | 0.13 | 0.20 | 0.13 | 90 | 1018.3 |
| 20260506214540 | 0 | 339 | 6.4 | 11.3 | 0.08 | 0.18 | 0.08 | 90 | 1018.2 |
| 20260506213044 | 0 | 335 | 6.4 | 12.9 | 0.03 | 0.13 | 0.03 | 89 | 1018.3 |
| 20260506211548 | -1 | 25 | 6.4 | 11.3 | 0.00 | 0.10 | 0.00 | 90 | 1018.6 |
| 20260506210040 | -1 | 338 | 4.8 | 14.5 | 0.00 | 0.10 | 0.00 | 90 | 1018.5 |
| 20260506204540 | -1 | 356 | 6.4 | 12.9 | 0.00 | 0.20 | 0.00 | 91 | 1018.5 |